Time,TemperatureF,DewpointF,PressureIn,WindDirection,WindDirectionDegrees,WindSpeedMPH,WindSpeedGustMPH,Humidity,HourlyPrecipIn,Conditions,Clouds,dailyrainin,SoftwareType,DateUTC
2013-07-17 00:02:00,74.0,71.0,30.20,NE,54,0.0,1.0,91,0.00,,,0.00,weatherlink.com 1.10,2013-07-17 04:02:00,
2013-07-17 00:17:00,73.5,71.0,30.19,NE,54,0.0,1.0,92,0.00,,,0.00,weatherlink.com 1.10,2013-07-17 04:17:00,
2013-07-17 00:32:00,73.0,71.0,30.20,NE,54,0.0,2.0,93,0.00,,,0.00,weatherlink.com 1.10,2013-07-17 04:32:00,
2013-07-17 00:47:00,73.1,71.0,30.20,NE,54,0.0,1.0,93,0.00,,,0.00,weatherlink.com 1.10,2013-07-17 04:47:00,
2013-07-17 01:02:00,73.1,71.0,30.20,NE,54,0.0,2.0,92,0.00,,,0.00,weatherlink.com 1.10,2013-07-17 05:02:00,
2013-07-17 01:17:00,72.8,71.0,30.19,NE,54,0.0,0.0,93,0.00,,,0.00,weatherlink.com 1.10,2013-07-17 05:17:00,
2013-07-17 01:32:00,72.8,71.0,30.18,NE,54,0.0,0.0,93,0.00,,,0.00,weatherlink.com 1.10,2013-07-17 05:32:00,
2013-07-17 01:47:00,72.6,70.0,30.18,East,79,0.0,5.0,92,0.00,,,0.00,weatherlink.com 1.10,2013-07-17 05:47:00,
2013-07-17 02:02:00,72.4,70.0,30.18,ESE,104,2.0,3.0,91,0.00,,,0.00,weatherlink.com 1.10,2013-07-17 06:02:00,
2013-07-17 02:17:00,72.5,70.0,30.18,NE,41,0.0,3.0,91,0.00,,,0.00,weatherlink.com 1.10,2013-07-17 06:17:00,
2013-07-17 02:32:00,72.5,70.0,30.18,NE,41,1.0,1.0,91,0.00,,,0.00,weatherlink.com 1.10,2013-07-17 06:32:00,
2013-07-17 02:47:00,71.7,70.0,30.17,NE,41,0.0,2.0,93,0.00,,,0.00,weatherlink.com 1.10,2013-07-17 06:47:00,
2013-07-17 03:02:00,71.1,69.0,30.17,NE,41,0.0,0.0,94,0.00,,,0.00,weatherlink.com 1.10,2013-07-17 07:02:00,
2013-07-17 03:17:00,71.0,69.0,30.18,NE,41,0.0,0.0,94,0.00,,,0.00,weatherlink.com 1.10,2013-07-17 07:17:00,
2013-07-17 03:32:00,71.7,69.0,30.18,NE,38,2.0,5.0,90,0.00,,,0.00,weatherlink.com 1.10,2013-07-17 07:32:00,
2013-07-17 03:47:00,72.4,69.0,30.18,NNE,25,0.0,4.0,90,0.00,,,0.00,weatherlink.com 1.10,2013-07-17 07:47:00,
2013-07-17 04:02:00,71.7,69.0,30.17,NNE,25,0.0,0.0,92,0.00,,,0.00,weatherlink.com 1.10,2013-07-17 08:02:00,
2013-07-17 04:17:00,71.8,69.0,30.17,NE,41,0.0,3.0,91,0.00,,,0.00,weatherlink.com 1.10,2013-07-17 08:17:00,
2013-07-17 04:32:00,73.6,69.0,30.17,ENE,63,2.0,5.0,85,0.00,,,0.00,weatherlink.com 1.10,2013-07-17 08:32:00,
2013-07-17 04:47:00,72.7,69.0,30.18,NE,48,0.0,1.0,89,0.00,,,0.00,weatherlink.com 1.10,2013-07-17 08:47:00,
2013-07-17 05:02:00,70.8,69.0,30.18,ENE,73,0.0,1.0,93,0.00,,,0.00,weatherlink.com 1.10,2013-07-17 09:02:00,
2013-07-17 05:18:00,70.4,69.0,30.18,ENE,73,0.0,1.0,94,0.00,,,0.00,weatherlink.com 1.10,2013-07-17 09:18:00,
2013-07-17 05:33:00,70.5,68.0,30.18,ENE,73,0.0,1.0,93,0.00,,,0.00,weatherlink.com 1.10,2013-07-17 09:33:00,
2013-07-17 05:48:00,71.2,69.0,30.19,ENE,73,0.0,3.0,91,0.00,,,0.00,weatherlink.com 1.10,2013-07-17 09:48:00,
2013-07-17 06:03:00,71.0,69.0,30.18,NE,52,0.0,1.0,92,0.00,,,0.00,weatherlink.com 1.10,2013-07-17 10:03:00,
2013-07-17 06:18:00,70.9,68.0,30.19,NE,52,0.0,2.0,91,0.00,,,0.00,weatherlink.com 1.10,2013-07-17 10:18:00,
2013-07-17 06:33:00,71.5,69.0,30.20,East,83,0.0,2.0,90,0.00,,,0.00,weatherlink.com 1.10,2013-07-17 10:33:00,
2013-07-17 06:48:00,72.3,68.0,30.20,ENE,74,0.0,5.0,87,0.00,,,0.00,weatherlink.com 1.10,2013-07-17 10:48:00,
2013-07-17 07:03:00,72.3,69.0,30.20,East,80,0.0,1.0,89,0.00,,,0.00,weatherlink.com 1.10,2013-07-17 11:03:00,
2013-07-17 07:18:00,71.2,69.0,30.20,East,80,0.0,1.0,92,0.00,,,0.00,weatherlink.com 1.10,2013-07-17 11:18:00,
2013-07-17 07:33:00,71.2,69.0,30.20,East,80,0.0,0.0,92,0.00,,,0.00,weatherlink.com 1.10,2013-07-17 11:33:00,
2013-07-17 07:48:00,71.8,70.0,30.21,East,80,0.0,0.0,94,0.00,,,0.00,weatherlink.com 1.10,2013-07-17 11:48:00,
2013-07-17 08:03:00,72.4,70.0,30.21,East,80,1.0,2.0,92,0.00,,,0.00,weatherlink.com 1.10,2013-07-17 12:03:00,
2013-07-17 08:18:00,73.0,70.0,30.21,East,80,0.0,1.0,91,0.00,,,0.00,weatherlink.com 1.10,2013-07-17 12:18:00,
2013-07-17 08:33:00,73.9,71.0,30.21,East,80,0.0,2.0,89,0.00,,,0.00,weatherlink.com 1.10,2013-07-17 12:33:00,
2013-07-17 08:48:00,74.4,72.0,30.22,East,80,0.0,1.0,91,0.00,,,0.00,weatherlink.com 1.10,2013-07-17 12:48:00,
2013-07-17 09:03:00,74.9,72.0,30.21,East,80,0.0,1.0,89,0.00,,,0.00,weatherlink.com 1.10,2013-07-17 13:03:00,
2013-07-17 09:18:00,76.0,72.0,30.21,East,80,0.0,1.0,86,0.00,,,0.00,weatherlink.com 1.10,2013-07-17 13:18:00,
2013-07-17 09:33:00,77.4,73.0,30.21,East,80,0.0,2.0,85,0.00,,,0.00,weatherlink.com 1.10,2013-07-17 13:33:00,
2013-07-17 09:48:00,78.9,73.0,30.21,ESE,110,0.0,3.0,82,0.00,,,0.00,weatherlink.com 1.10,2013-07-17 13:48:00,
2013-07-17 10:03:00,80.5,73.0,30.21,ESE,111,0.0,3.0,78,0.00,,,0.00,weatherlink.com 1.10,2013-07-17 14:03:00,
2013-07-17 10:18:00,82.1,74.0,30.21,SSE,164,1.0,3.0,75,0.00,,,0.00,weatherlink.com 1.10,2013-07-17 14:18:00,
2013-07-17 10:33:00,84.6,74.0,30.21,ESE,114,2.0,5.0,71,0.00,,,0.00,weatherlink.com 1.10,2013-07-17 14:33:00,
2013-07-17 10:48:00,85.1,75.0,30.21,SSE,164,2.0,3.0,71,0.00,,,0.00,weatherlink.com 1.10,2013-07-17 14:48:00,
2013-07-17 11:03:00,87.3,74.0,30.20,NE,56,5.0,5.0,65,0.00,,,0.00,weatherlink.com 1.10,2013-07-17 15:03:00,
2013-07-17 11:18:00,88.1,74.0,30.20,NNE,13,1.0,5.0,63,0.00,,,0.00,weatherlink.com 1.10,2013-07-17 15:18:00,
2013-07-17 11:34:00,87.8,73.0,30.20,West,278,2.0,7.0,62,0.00,,,0.00,weatherlink.com 1.10,2013-07-17 15:34:00,
2013-07-17 11:49:00,87.5,74.0,30.20,North,10,1.0,4.0,64,0.00,,,0.00,weatherlink.com 1.10,2013-07-17 15:49:00,
2013-07-17 12:04:00,88.6,74.0,30.20,ESE,118,0.0,5.0,63,0.00,,,0.00,weatherlink.com 1.10,2013-07-17 16:04:00,
2013-07-17 12:19:00,89.1,74.0,30.20,East,88,1.0,5.0,62,0.00,,,0.00,weatherlink.com 1.10,2013-07-17 16:19:00,
2013-07-17 12:34:00,89.1,74.0,30.20,NNE,21,0.0,3.0,62,0.00,,,0.00,weatherlink.com 1.10,2013-07-17 16:34:00,
2013-07-17 12:49:00,90.0,75.0,30.20,NNE,23,0.0,3.0,61,0.00,,,0.00,weatherlink.com 1.10,2013-07-17 16:49:00,
2013-07-17 13:04:00,90.2,74.0,30.19,NNE,19,1.0,4.0,60,0.00,,,0.00,weatherlink.com 1.10,2013-07-17 17:04:00,
2013-07-17 13:19:00,90.1,75.0,30.18,East,89,0.0,3.0,62,0.00,,,0.00,weatherlink.com 1.10,2013-07-17 17:19:00,
2013-07-17 13:34:00,90.3,75.0,30.17,East,92,2.0,6.0,60,0.00,,,0.00,weatherlink.com 1.10,2013-07-17 17:34:00,
2013-07-17 13:49:00,90.1,75.0,30.16,WNW,293,1.0,4.0,61,0.00,,,0.00,weatherlink.com 1.10,2013-07-17 17:49:00,
2013-07-17 14:04:00,89.6,75.0,30.16,West,274,0.0,3.0,62,0.00,,,0.00,weatherlink.com 1.10,2013-07-17 18:04:00,
2013-07-17 14:19:00,90.2,74.0,30.14,South,187,3.0,4.0,60,0.00,,,0.00,weatherlink.com 1.10,2013-07-17 18:19:00,
2013-07-17 14:34:00,90.4,75.0,30.14,ESE,120,1.0,5.0,60,0.00,,,0.00,weatherlink.com 1.10,2013-07-17 18:34:00,
2013-07-17 14:49:00,91.9,74.0,30.14,NW,306,2.0,6.0,57,0.00,,,0.00,weatherlink.com 1.10,2013-07-17 18:49:00,
2013-07-17 15:04:00,91.9,74.0,30.13,NNE,25,5.0,8.0,57,0.00,,,0.00,weatherlink.com 1.10,2013-07-17 19:04:00,
2013-07-17 15:19:00,91.9,73.0,30.13,East,97,1.0,4.0,55,0.00,,,0.00,weatherlink.com 1.10,2013-07-17 19:19:00,
2013-07-17 15:34:00,91.3,72.0,30.11,ESE,120,0.0,3.0,54,0.00,,,0.00,weatherlink.com 1.10,2013-07-17 19:34:00,
2013-07-17 15:49:00,90.6,74.0,30.12,NNE,30,0.0,9.0,59,0.00,,,0.00,weatherlink.com 1.10,2013-07-17 19:49:00,
2013-07-17 16:04:00,87.5,77.0,30.12,East,79,0.0,3.0,71,0.00,,,0.00,weatherlink.com 1.10,2013-07-17 20:04:00,
2013-07-17 16:19:00,80.7,75.0,30.13,SE,135,4.0,17.0,83,0.00,,,0.00,weatherlink.com 1.10,2013-07-17 20:19:00,
2013-07-17 16:34:00,75.7,72.0,30.12,North,354,0.0,11.0,87,0.00,,,0.00,weatherlink.com 1.10,2013-07-17 20:34:00,
2013-07-17 16:49:00,74.4,72.0,30.13,North,359,0.0,4.0,91,0.00,,,0.00,weatherlink.com 1.10,2013-07-17 20:49:00,
2013-07-17 17:04:00,73.7,71.0,30.12,ENE,71,1.0,5.0,92,0.00,,,0.00,weatherlink.com 1.10,2013-07-17 21:04:00,
2013-07-17 17:19:00,73.7,72.0,30.12,NE,56,1.0,5.0,93,0.00,,,0.00,weatherlink.com 1.10,2013-07-17 21:19:00,
2013-07-17 17:34:00,73.6,71.0,30.14,South,177,3.0,7.0,92,0.00,,,0.00,weatherlink.com 1.10,2013-07-17 21:34:00,
2013-07-17 17:49:00,72.7,69.0,30.15,ENE,62,1.0,7.0,89,0.00,,,0.00,weatherlink.com 1.10,2013-07-17 21:49:00,
2013-07-17 18:04:00,72.3,70.0,30.16,SSE,164,1.0,3.0,92,0.00,,,0.00,weatherlink.com 1.10,2013-07-17 22:04:00,
2013-07-17 18:19:00,71.8,70.0,30.13,NNW,332,0.0,4.0,93,0.00,,,0.00,weatherlink.com 1.10,2013-07-17 22:19:00,
2013-07-17 18:34:00,71.7,70.0,30.14,NW,308,0.0,5.0,94,0.00,,,0.00,weatherlink.com 1.10,2013-07-17 22:34:00,
2013-07-17 18:49:00,71.2,69.0,30.15,WSW,248,0.0,3.0,94,0.00,,,0.00,weatherlink.com 1.10,2013-07-17 22:49:00,
2013-07-17 19:04:00,70.9,70.0,30.16,SW,221,2.0,5.0,96,0.00,,,0.00,weatherlink.com 1.10,2013-07-17 23:04:00,
2013-07-17 19:19:00,70.7,70.0,30.15,West,270,2.0,5.0,96,0.00,,,0.00,weatherlink.com 1.10,2013-07-17 23:19:00,
2013-07-17 19:34:00,70.8,70.0,30.15,West,270,0.0,1.0,97,0.00,,,0.00,weatherlink.com 1.10,2013-07-17 23:34:00,
2013-07-17 19:49:00,71.0,70.0,30.15,West,270,1.0,1.0,97,0.00,,,0.00,weatherlink.com 1.10,2013-07-17 23:49:00,
2013-07-17 20:04:00,70.9,70.0,30.15,NNW,347,0.0,1.0,96,0.00,,,0.00,weatherlink.com 1.10,2013-07-18 00:04:00,
2013-07-17 20:19:00,70.8,70.0,30.15,North,11,0.0,2.0,97,0.00,,,0.00,weatherlink.com 1.10,2013-07-18 00:19:00,
2013-07-17 20:34:00,70.9,70.0,30.15,NNE,12,0.0,1.0,97,0.00,,,0.00,weatherlink.com 1.10,2013-07-18 00:34:00,
2013-07-17 20:49:00,70.8,70.0,30.15,NNE,12,0.0,0.0,97,0.00,,,0.00,weatherlink.com 1.10,2013-07-18 00:49:00,
2013-07-17 21:04:00,70.6,70.0,30.14,NNE,12,1.0,2.0,96,0.00,,,0.00,weatherlink.com 1.10,2013-07-18 01:04:00,
2013-07-17 21:19:00,70.4,70.0,30.14,ENE,75,1.0,3.0,97,0.00,,,0.00,weatherlink.com 1.10,2013-07-18 01:19:00,
2013-07-17 21:34:00,70.4,70.0,30.14,ENE,75,0.0,1.0,97,0.00,,,0.00,weatherlink.com 1.10,2013-07-18 01:34:00,
2013-07-17 21:49:00,70.4,70.0,30.14,ENE,75,0.0,1.0,97,0.00,,,0.00,weatherlink.com 1.10,2013-07-18 01:49:00,
2013-07-17 22:04:00,70.5,69.0,30.15,East,95,1.0,8.0,96,0.00,,,0.00,weatherlink.com 1.10,2013-07-18 02:04:00,
2013-07-17 22:19:00,71.2,69.0,30.15,NE,44,2.0,3.0,93,0.00,,,0.00,weatherlink.com 1.10,2013-07-18 02:19:00,
2013-07-17 22:34:00,71.2,69.0,30.15,East,87,2.0,4.0,93,0.00,,,0.00,weatherlink.com 1.10,2013-07-18 02:34:00,
2013-07-17 22:49:00,71.1,69.0,30.15,ESE,104,3.0,4.0,93,0.00,,,0.00,weatherlink.com 1.10,2013-07-18 02:49:00,
2013-07-17 23:04:00,71.1,69.0,30.16,East,91,1.0,3.0,94,0.00,,,0.00,weatherlink.com 1.10,2013-07-18 03:04:00,
2013-07-17 23:19:00,70.7,69.0,30.16,NNE,27,2.0,4.0,93,0.00,,,0.00,weatherlink.com 1.10,2013-07-18 03:19:00,
2013-07-17 23:34:00,71.0,69.0,30.15,East,83,0.0,3.0,93,0.00,,,0.00,weatherlink.com 1.10,2013-07-18 03:34:00,
2013-07-17 23:49:00,70.7,69.0,30.15,ESE,108,0.0,2.0,93,0.00,,,0.00,weatherlink.com 1.10,2013-07-18 03:49:00,